Weather in Fort Worth

United States     32°45′37″N   97°21′01″W
В апреле 2022 года жителям России запретили посещать сайт meteo.paraplan.net по решению Генеральной прокуратуры. Аудитория сайта уменьшилась в 10 раз. Владельцы сайта не видят смысла в поддержке погодного сервера в таких условиях. Сайт будет закрыт в октябре.
temp.,
°C
wind,
m/s
gust,
m/s
humid.,
%
clouds,
%
prec.,
mm/h
press.,
hPa
HPBL,
m
4 october, tue
tue401:00+23se26360 0.0 1019235
04:00+22se26400 0.0 1018199
07:00+20sse24460 0.0 1019166
10:00+23se34400 0.0 1020457
13:00+28se33295 0.0 10191276
16:00+30se33230 0.0 10162019
19:00+28se33250 0.0 1016612
22:00+26se25290 0.0 1017132
5 october, wed
wed501:00+23se38342 0.0 1017268
04:00+21sse37370 0.0 1017218
07:00+20s24410 0.0 1018136
10:00+23sse22350 0.0 1019346
13:00+29se22270 0.0 10181172
16:00+31ese22205 0.0 10162201
19:00+29e23215 0.0 1016529
22:00+26sse24295 0.0 1018140
6 october, thu
thu601:00+24se363377 0.0 1019200
04:00+22s25375 0.0 1019146
07:00+21s24425 0.0 1020135
10:00+25nnw00345 0.0 1022307
13:00+30ene12235 0.0 10201032
16:00+32e23185 0.0 10182210
19:00+30ese23215 0.0 1018391
22:00+27ssw252999 0.0 1020139
7 october, fri
fri701:00+26nw1131100 0.0 102025
04:00+24wnw2233100 0.0 102049
07:00+23nw2435100 0.0 1021135
10:00+25nnw453071 0.0 1023399
13:00+29n3323100 0.0 1022986
16:00+31n322258 0.0 10191968
19:00+28nne582656 0.0 1020551
22:00+26nne372940 0.0 1022453
8 october, sat
sat801:00+24ne383335 0.0 1022481
04:00+24ne353470 0.0 1022322
07:00+22e363812 0.0 1023349
10:00+24ese353667 0.0 1025588
13:00+28se34315 0.0 10231182
16:00+31sse22265 0.0 10202021
19:00+30e232842 0.0 1020146
22:00+28ese3831100 0.0 1021624